Date,TemperatureHighF,TemperatureAvgF,TemperatureLowF,DewpointHighF,DewpointAvgF,DewpointLowF,HumidityHigh,HumidityAvg,HumidityLow,PressureMaxIn,PressureMinIn,WindSpeedMaxMPH,WindSpeedAvgMPH,GustSpeedMaxMPH,PrecipitationSumIn
2013-1-1,66,56,48,56,51,45,94,83,70,30.18,29.95,3,0,7,0.00
2013-1-2,64,56,48,59,53,46,97,89,80,30.18,29.89,8,2,12,0.01
2013-1-3,48,44,38,45,42,37,97,93,88,30.28,30.12,5,1,8,0.11
2013-1-4,54,41,31,41,34,31,98,80,44,30.35,30.23,4,0,9,0.01
2013-1-5,54,40,29,39,33,28,97,79,38,30.42,30.30,5,1,8,0.00
2013-1-6,55,48,41,47,44,39,96,86,68,30.29,30.09,3,0,6,0.02
2013-1-7,56,47,39,46,39,34,96,76,44,30.41,30.17,9,2,14,0.00
2013-1-8,65,52,43,55,46,36,97,79,66,30.42,30.33,7,2,10,0.00
2013-1-9,72,60,48,62,56,47,98,88,66,30.40,30.34,7,1,9,0.00
2013-1-10,69,60,54,58,53,42,98,79,54,30.47,30.38,9,2,14,0.01
2013-1-11,76,63,55,67,60,48,98,89,72,30.38,30.18,5,1,11,0.23
2013-1-12,79,67,60,66,63,58,99,87,60,30.20,30.11,8,1,10,0.01
2013-1-13,75,64,56,65,60,56,99,89,67,30.19,30.09,6,1,10,0.00
2013-1-14,78,65,56,67,62,56,99,88,62,30.20,30.11,8,1,10,0.02
2013-1-15,77,65,58,66,62,57,99,90,67,30.18,30.04,4,1,7,0.00
2013-1-16,79,69,61,67,64,60,99,84,56,30.06,29.95,9,2,14,0.01
2013-1-17,76,64,45,68,59,42,98,85,65,30.03,29.73,12,3,31,0.19
2013-1-18,53,44,37,41,34,26,93,70,37,30.52,30.04,16,4,23,0.00
2013-1-19,60,45,34,46,38,31,96,77,52,30.50,30.22,4,1,6,0.00
2013-1-20,67,51,40,48,39,30,98,72,26,30.22,30.02,8,1,14,0.00
2013-1-21,66,51,36,49,37,32,96,65,29,30.09,29.92,7,1,12,0.00
2013-1-22,53,43,31,36,28,20,86,58,32,30.27,30.01,10,2,12,0.00
2013-1-23,47,36,28,36,20,8,93,58,22,30.40,30.16,9,2,11,0.00
2013-1-24,58,44,29,45,30,11,85,60,41,30.52,30.05,13,5,18,0.00
2013-1-25,41,34,25,34,21,9,78,61,45,30.51,30.16,8,3,12,0.00
2013-1-26,54,42,34,37,32,28,85,69,51,30.36,30.11,7,2,11,0.00
2013-1-27,49,39,30,36,31,26,89,76,54,30.55,30.37,10,2,11,0.00
2013-1-28,62,47,36,55,42,31,97,85,66,30.50,30.29,5,1,7,0.00
2013-1-29,75,58,42,65,54,42,98,89,65,30.29,30.13,7,1,10,0.00
2013-1-30,73,68,61,67,65,60,98,89,82,30.12,29.60,13,4,22,0.01
2013-1-31,71,51,44,67,36,24,95,60,32,30.14,29.60,13,4,29,0.24
2013-2-1,55,44,32,34,23,7,69,46,18,30.38,30.10,18,3,24,0.00
2013-2-2,50,39,28,42,28,13,96,65,46,30.41,30.08,7,2,10,0.00
2013-2-3,58,47,37,40,35,32,94,67,39,30.07,29.89,14,3,21,0.00
2013-2-4,49,40,29,37,32,27,95,74,48,30.16,30.03,4,0,6,0.00
2013-2-5,67,52,36,49,41,35,96,71,35,30.07,29.94,6,1,15,0.00
2013-2-6,70,55,45,51,46,41,96,75,35,30.23,30.01,6,1,10,0.00
2013-2-7,61,52,44,55,50,43,97,93,71,30.21,29.73,12,3,19,1.00
2013-2-8,63,55,48,55,49,46,97,82,61,30.04,29.67,12,4,17,0.10
2013-2-9,59,47,35,47,32,23,95,63,28,30.36,30.05,9,3,21,0.00
2013-2-10,60,47,33,55,42,32,96,82,57,30.45,30.23,8,2,12,0.00
2013-2-11,66,61,54,64,60,53,97,94,88,30.27,30.02,6,2,14,0.69
2013-2-12,63,57,50,59,55,48,98,91,64,30.12,29.92,4,1,13,0.79
2013-2-13,66,55,48,62,52,47,98,90,69,29.94,29.68,11,2,18,0.23
2013-2-14,54,48,40,50,41,37,96,78,57,30.09,29.84,8,1,11,0.00
2013-2-15,60,46,34,45,39,34,98,81,49,30.11,29.98,7,1,10,0.00
2013-2-16,54,41,33,44,38,32,98,90,67,29.98,29.80,14,3,24,0.16
2013-2-17,41,34,27,32,24,19,94,72,42,30.31,29.99,19,4,26,0.05
2013-2-18,51,35,24,33,28,23,95,77,36,30.45,30.30,4,1,8,0.01
2013-2-19,62,50,33,56,46,31,96,89,63,30.30,29.96,5,2,14,0.09
2013-2-20,56,47,35,48,36,24,97,70,31,30.16,30.02,7,1,10,0.01
2013-2-21,60,45,36,43,34,24,96,68,33,30.22,30.10,7,1,9,0.00
2013-2-22,52,47,43,50,44,31,97,88,59,30.27,30.08,12,3,16,0.16
2013-2-23,49,46,43,49,45,42,98,98,97,30.07,29.77,6,2,12,0.58
2013-2-24,66,52,45,51,47,43,98,86,44,30.02,29.77,10,2,14,0.01
2013-2-25,46,44,42,44,38,36,98,81,69,30.16,29.98,11,3,17,0.01
2013-2-26,70,58,42,67,57,41,99,94,84,30.04,29.57,14,4,21,1.36
2013-2-27,59,53,48,56,44,39,95,73,55,29.86,29.68,13,3,17,0.00
2013-2-28,58,50,41,43,38,33,89,65,40,29.87,29.75,13,3,23,0.00
2013-3-1,54,46,38,38,34,32,90,65,45,29.94,29.85,8,2,13,0.00
2013-3-2,49,41,34,38,35,33,97,79,55,29.93,29.83,9,1,12,0.00
2013-3-3,49,41,36,36,28,24,94,62,42,29.99,29.87,13,3,20,0.00
2013-3-4,53,40,31,31,24,19,83,56,27,30.16,29.99,11,3,18,0.00
2013-3-5,66,53,36,56,43,32,95,71,40,30.13,29.66,14,3,19,0.02
2013-3-6,62,49,42,55,32,25,81,54,38,30.05,29.62,20,7,32,0.01
2013-3-7,58,46,36,36,32,30,80,60,39,30.21,30.06,9,4,18,0.00
2013-3-8,58,46,35,34,30,28,76,55,32,30.28,30.16,15,3,20,0.00
2013-3-9,64,48,36,42,36,30,93,64,37,30.32,30.23,11,2,13,0.00
2013-3-10,62,49,36,46,36,25,97,67,25,30.32,30.23,9,1,11,0.00
2013-3-11,72,57,43,59,51,41,97,82,55,30.24,29.94,7,1,14,0.00
2013-3-12,71,64,58,64,60,50,97,88,76,29.95,29.78,7,1,12,0.30
2013-3-13,64,55,44,50,36,26,80,53,24,30.12,29.92,11,3,19,0.00
2013-3-14,54,45,36,33,25,20,81,47,30,30.29,30.11,13,4,17,0.00
2013-3-15,61,48,31,45,36,25,96,66,31,30.23,30.02,9,2,11,0.00
2013-3-16,80,66,55,52,47,42,72,53,27,30.01,29.80,10,4,24,0.00
2013-3-17,79,66,54,60,52,47,80,62,39,30.04,29.91,10,2,17,0.00
2013-3-18,62,56,50,55,52,48,97,87,69,30.12,29.87,7,2,12,0.00
2013-3-19,71,58,50,56,51,43,98,79,39,30.01,29.80,12,3,20,0.47
2013-3-20,60,50,40,45,31,15,92,53,18,30.12,29.83,7,1,12,0.00
2013-3-21,55,46,37,38,25,14,95,49,24,29.96,29.75,12,4,22,0.00
2013-3-22,52,42,30,38,25,17,74,52,28,30.11,29.96,6,2,12,0.00
2013-3-23,50,45,39,47,42,37,95,89,72,30.08,29.91,4,1,10,0.35
2013-3-24,60,51,44,59,49,43,98,95,91,29.91,29.44,13,4,19,1.93
2013-3-25,54,48,43,44,35,26,96,66,40,29.91,29.56,17,5,30,0.00
2013-3-26,51,43,34,32,28,26,79,57,40,30.15,29.92,10,3,20,0.00
2013-3-27,57,45,33,33,30,25,91,61,34,30.25,30.16,11,2,18,0.00
2013-3-28,58,45,32,34,29,25,90,57,28,30.29,30.18,20,3,21,0.00
2013-3-29,60,48,33,41,34,27,92,62,29,30.36,30.23,9,1,14,0.00
2013-3-30,62,54,48,51,46,41,95,75,53,30.26,30.11,7,1,12,0.00
2013-3-31,74,63,50,59,56,49,95,79,56,30.11,29.88,12,3,20,0.44
2013-4-1,75,64,57,63,59,55,97,85,58,29.93,29.84,9,2,13,0.39
2013-4-2,62,56,49,55,44,35,95,66,41,30.16,29.92,8,2,14,0.00
2013-4-3,63,54,49,50,44,33,97,72,37,30.26,30.08,9,2,14,0.00
2013-4-4,60,53,49,59,49,42,97,87,69,30.27,29.82,13,4,20,1.20
2013-4-5,59,50,43,50,46,42,97,89,71,30.04,29.86,11,3,16,0.00
2013-4-6,66,54,42,53,46,41,98,76,45,30.27,30.04,7,2,18,0.00
2013-4-7,71,59,42,59,52,41,98,80,52,30.28,30.16,5,1,10,0.00
2013-4-8,78,64,51,64,58,51,98,83,56,30.21,30.13,8,1,13,0.00
2013-4-9,81,67,56,67,61,55,98,83,50,30.24,30.13,8,1,11,0.00
2013-4-10,80,69,59,67,63,58,98,81,56,30.17,30.03,12,2,15,0.00
2013-4-11,81,70,60,72,66,59,98,89,72,30.03,29.86,11,2,14,0.00
2013-4-12,82,72,67,73,69,66,98,92,73,29.87,29.70,6,2,15,1.09
2013-4-13,76,64,54,68,55,47,97,75,37,30.03,29.79,8,2,13,0.00
2013-4-14,73,62,50,63,57,50,99,86,57,30.11,29.99,6,1,10,0.02
2013-4-15,73,66,62,64,62,60,96,87,71,30.17,29.89,7,2,15,0.67
2013-4-16,77,67,58,66,62,58,98,85,65,30.26,30.17,7,1,10,0.00
2013-4-17,79,68,57,67,62,57,98,84,59,30.24,30.14,7,1,9,0.00
2013-4-18,77,69,61,69,65,60,98,88,68,30.18,30.04,9,1,11,0.00
2013-4-19,79,73,67,73,70,66,98,91,80,30.04,29.87,11,3,17,0.76
2013-4-20,68,57,46,67,51,43,98,82,54,30.26,29.90,7,2,13,0.18
2013-4-21,67,56,44,51,46,41,97,71,49,30.38,30.26,10,4,19,0.00
2013-4-22,67,56,46,52,46,36,86,70,57,30.36,30.15,13,5,18,0.00
2013-4-23,68,57,51,57,52,49,97,83,66,30.22,30.14,12,3,15,0.00
2013-4-24,75,63,49,64,57,49,98,83,66,30.20,30.06,9,2,14,0.00
2013-4-25,78,66,59,67,63,58,97,89,65,30.25,30.08,5,1,10,0.48
2013-4-26,71,61,51,58,51,40,97,74,33,30.40,30.24,9,2,14,0.01
2013-4-27,73,62,52,59,52,42,96,72,35,30.36,30.25,12,2,13,0.00
2013-4-28,73,67,60,64,61,56,95,83,70,30.25,30.07,8,2,15,0.00
2013-4-29,72,66,62,68,64,62,98,93,79,30.08,29.97,5,1,9,2.02
2013-4-30,73,66,62,67,63,61,99,91,72,30.10,29.97,8,2,11,0.23
2013-5-1,74,65,58,64,60,57,96,86,65,30.20,30.08,11,4,14,0.00
2013-5-2,72,66,62,64,62,58,96,87,72,30.22,30.16,15,4,16,0.00
2013-5-3,68,62,56,62,56,44,92,80,57,30.15,30.07,17,6,30,0.00
2013-5-4,65,59,54,61,55,48,95,86,76,30.08,29.96,13,4,19,0.12
2013-5-5,72,64,58,65,60,56,95,88,70,29.98,29.84,14,4,16,0.23
2013-5-6,75,66,56,65,61,53,98,83,45,29.91,29.82,10,2,17,0.68
2013-5-7,69,61,53,60,56,51,96,84,59,29.97,29.89,5,1,10,0.22
2013-5-8,79,66,54,64,58,53,98,78,49,30.03,29.95,6,1,13,0.01
2013-5-9,83,71,60,68,63,58,94,77,49,30.09,29.99,6,1,13,0.00
2013-5-10,86,73,60,68,64,59,96,75,51,30.09,30.00,12,1,14,0.00
2013-5-11,84,75,69,71,67,61,93,76,50,30.02,29.85,7,2,10,0.00
2013-5-12,81,73,62,68,60,48,91,67,36,29.98,29.82,11,2,14,0.00
2013-5-13,72,63,52,53,44,39,85,53,31,30.14,29.98,16,3,17,0.00
2013-5-14,71,61,49,53,45,38,94,60,37,30.27,30.14,11,2,16,0.00
2013-5-15,87,71,56,67,59,54,96,69,43,30.16,29.98,8,2,14,0.00
2013-5-16,87,75,65,69,64,60,87,70,48,30.04,29.96,6,1,13,0.00
2013-5-17,88,76,64,70,66,62,95,73,48,30.11,30.02,7,1,10,0.00
2013-5-18,84,73,64,71,67,63,97,82,50,30.16,30.08,6,1,12,0.00
2013-5-19,81,74,70,72,69,66,96,86,63,30.15,30.07,7,1,13,0.00
2013-5-20,75,72,70,73,70,68,97,94,85,30.13,30.05,6,1,9,1.33
2013-5-21,79,73,69,73,70,69,98,92,78,30.09,29.99,7,1,9,0.30
2013-5-22,82,75,66,73,70,66,98,87,71,30.04,29.94,10,2,18,0.00
2013-5-23,84,73,67,74,70,66,99,91,64,29.97,29.85,7,1,12,1.86
2013-5-24,80,71,59,68,60,46,99,71,40,30.17,29.81,14,3,22,0.01
2013-5-25,76,63,50,56,47,39,91,60,27,30.30,30.16,10,2,14,0.00
2013-5-26,78,66,56,61,56,51,95,72,43,30.27,30.16,7,1,9,0.00
2013-5-27,78,70,60,66,63,58,97,80,63,30.26,30.18,7,2,13,0.00
2013-5-28,82,73,62,70,66,62,98,81,58,30.27,30.19,7,2,12,0.00
2013-5-29,82,73,64,71,67,63,98,80,59,30.27,30.17,9,1,12,0.00
2013-5-30,84,75,64,73,69,63,98,82,63,30.27,30.19,6,1,11,0.00
2013-5-31,83,76,68,74,71,67,98,85,69,30.23,30.14,7,1,13,0.00
2013-6-1,83,76,66,73,70,66,98,82,63,30.17,30.08,8,2,14,0.00
2013-6-2,84,76,68,75,72,67,98,87,71,30.12,29.96,8,2,19,0.00
2013-6-3,81,74,68,77,72,67,98,94,86,29.97,29.86,7,1,12,1.64
2013-6-4,84,75,69,75,72,69,99,89,66,30.05,29.91,6,1,10,0.00
2013-6-5,81,76,74,75,73,72,96,89,81,30.07,29.98,9,3,15,0.00
2013-6-6,80,76,72,76,74,71,98,93,85,29.99,29.77,7,1,10,2.71
2013-6-7,82,76,72,75,74,71,98,90,73,29.86,29.54,11,3,27,1.03
2013-6-8,89,80,74,78,74,72,96,83,61,30.10,29.85,7,2,13,0.00
2013-6-9,86,79,73,79,75,72,98,88,74,30.15,30.08,7,1,11,0.00
2013-6-10,86,79,70,79,75,69,96,88,72,30.13,29.96,9,2,16,0.26
2013-6-11,88,77,70,76,73,69,98,88,65,30.02,29.91,7,1,14,0.44
2013-6-12,91,82,71,81,76,71,99,84,64,29.98,29.89,6,1,11,0.01
2013-6-13,95,86,77,80,77,74,97,76,53,29.91,29.68,8,2,16,0.00
2013-6-14,84,78,72,76,64,59,91,65,43,30.00,29.70,12,3,18,0.00
2013-6-15,83,74,62,68,61,52,95,67,35,30.14,30.00,7,1,12,0.00
2013-6-16,84,75,64,69,66,62,96,74,55,30.17,30.06,8,1,12,0.00
2013-6-17,87,77,68,76,72,66,97,84,64,30.09,29.97,6,1,14,0.05
2013-6-18,90,80,72,78,74,69,97,84,64,30.02,29.82,9,1,15,0.16
2013-6-19,81,77,72,76,73,70,96,88,75,30.07,29.86,6,2,10,0.81
2013-6-20,83,75,68,71,68,63,97,81,58,30.17,30.06,10,3,15,0.17
2013-6-21,83,73,64,75,68,60,97,85,69,30.19,30.12,7,2,14,0.79
2013-6-22,84,76,70,75,72,70,98,90,72,30.16,30.08,6,1,10,0.04
2013-6-23,84,77,71,78,74,70,98,90,75,30.20,30.14,12,1,12,0.32
2013-6-24,86,79,76,78,76,74,96,89,73,30.22,30.14,4,1,8,0.05
2013-6-25,89,81,74,79,76,74,98,86,63,30.16,30.04,7,1,13,0.00
2013-6-26,88,80,74,77,74,72,97,85,66,30.07,29.95,6,1,11,0.01
2013-6-27,92,80,73,79,75,69,97,85,62,30.01,29.77,7,2,17,0.00
2013-6-28,92,83,77,81,77,74,93,83,60,29.82,29.65,6,2,16,0.00
2013-6-29,87,79,73,78,75,71,97,87,70,29.78,29.67,6,2,19,0.43
2013-6-30,84,77,72,79,75,71,98,93,82,29.89,29.74,6,1,14,1.60
2013-7-1,82,76,72,78,74,72,98,95,83,30.04,29.84,8,2,20,4.35
2013-7-2,82,77,72,78,75,71,97,94,85,30.17,30.03,7,1,10,0.50
2013-7-3,86,80,75,80,77,74,98,90,79,30.24,30.14,14,2,17,0.23
2013-7-4,86,81,78,78,76,74,94,85,71,30.25,30.20,12,2,17,0.00
2013-7-5,86,81,77,79,76,74,94,86,74,30.26,30.18,7,2,16,0.00
2013-7-6,86,79,72,77,74,71,98,85,69,30.24,30.15,7,1,14,0.01
2013-7-7,88,79,72,77,74,71,98,85,68,30.20,30.10,9,1,13,0.04
2013-7-8,87,79,71,77,73,70,98,84,67,30.19,30.12,6,1,11,0.00
2013-7-9,88,80,72,78,74,71,98,83,69,30.19,30.10,9,1,12,0.00
2013-7-10,88,80,73,78,75,72,97,84,65,30.13,29.98,8,1,12,0.00
2013-7-11,90,80,73,78,74,72,97,84,57,30.01,29.89,9,1,13,0.00
2013-7-12,79,76,73,75,74,71,97,93,87,29.97,29.88,3,0,6,0.72
2013-7-13,85,78,73,78,75,72,97,89,75,30.11,29.95,8,2,15,0.06
2013-7-14,85,81,75,78,76,72,91,84,76,30.24,30.11,11,3,15,0.02
2013-7-15,86,81,76,79,76,75,96,86,73,30.27,30.21,9,2,12,0.00
2013-7-16,91,81,74,78,75,73,98,82,57,30.28,30.19,5,1,10,0.00
2013-7-17,93,78,70,80,74,69,98,89,57,30.21,30.10,5,1,20,1.08
2013-7-18,90,80,72,79,75,72,99,87,68,30.15,30.07,7,1,10,0.01
2013-7-19,88,80,72,79,75,72,98,86,68,30.13,30.02,7,1,12,0.13
2013-7-20,87,80,75,77,75,73,94,86,68,30.08,29.99,8,2,11,0.01
2013-7-21,86,78,74,78,74,72,94,88,75,30.04,29.94,6,1,11,0.00
2013-7-22,89,80,74,78,75,73,96,84,65,29.99,29.88,11,1,13,0.00
2013-7-23,89,81,75,77,74,73,93,82,65,29.91,29.77,9,2,13,0.00
2013-7-24,87,80,74,78,76,73,97,87,67,29.82,29.75,3,1,8,0.00
2013-7-25,90,80,72,78,74,70,98,82,57,29.99,29.77,7,1,9,0.00
2013-7-26,85,78,71,76,73,69,93,84,70,30.07,29.98,8,2,10,0.00
2013-7-27,87,79,71,76,73,70,98,83,66,30.05,29.93,8,1,10,0.00
2013-7-28,88,80,73,80,76,72,97,88,71,30.02,29.91,7,1,9,0.01
2013-7-29,90,78,72,80,75,70,99,90,64,30.14,30.01,9,1,12,1.03
2013-7-30,86,79,73,78,75,73,99,89,73,30.18,30.11,5,1,9,0.01
2013-7-31,85,78,74,78,76,74,98,91,77,30.13,30.01,4,1,11,0.24
2013-8-1,83,76,73,78,74,72,99,94,79,30.01,29.92,6,0,8,1.18
2013-8-2,87,79,73,80,76,73,99,92,74,30.05,29.93,5,1,9,0.98
2013-8-3,87,80,75,80,77,74,99,90,75,30.04,29.92,6,1,9,0.10
2013-8-4,91,81,73,78,74,71,98,81,61,30.01,29.88,11,2,12,0.01
2013-8-5,85,77,70,73,68,64,96,75,51,30.06,29.98,7,1,11,0.00
2013-8-6,85,77,69,72,69,65,94,76,59,30.06,29.97,5,1,11,0.00
2013-8-7,85,77,69,75,72,68,97,86,63,30.08,30.01,6,1,11,0.03
2013-8-8,88,78,71,80,75,71,98,91,70,30.07,30.01,6,1,10,1.26
2013-8-9,90,81,75,80,77,74,99,86,69,30.11,30.02,7,1,10,0.07
2013-8-10,93,82,73,81,77,73,99,84,57,30.12,30.04,6,1,10,0.00
2013-8-11,95,84,76,79,77,73,97,80,51,30.13,30.02,6,1,10,0.00
2013-8-12,94,85,77,81,78,75,94,80,57,30.07,29.95,4,1,13,0.00
2013-8-13,94,85,78,80,78,75,93,80,57,29.97,29.82,4,1,14,0.00
2013-8-14,83,77,67,78,74,65,96,90,76,30.02,29.82,9,2,11,0.09
2013-8-15,70,66,63,69,65,62,97,96,91,30.10,30.01,9,3,16,0.83
2013-8-16,76,70,65,72,68,64,97,94,87,30.10,30.04,10,3,14,0.77
2013-8-17,79,73,69,74,71,68,97,93,85,30.15,30.02,6,2,9,0.00
2013-8-18,88,78,70,78,74,70,98,88,64,30.20,30.11,4,0,9,0.00
2013-8-19,87,78,74,80,76,73,99,92,72,30.15,30.06,5,1,8,0.14
2013-8-20,84,77,74,79,76,73,99,96,81,30.17,30.07,3,0,4,1.28
2013-8-21,88,80,73,79,76,72,99,89,68,30.21,30.11,3,0,9,0.01
2013-8-22,89,78,73,79,75,72,99,90,65,30.15,30.02,4,0,12,0.06
2013-8-23,91,80,73,79,75,72,98,86,64,30.04,29.93,8,1,11,0.01
2013-8-24,83,76,72,75,70,67,96,82,61,30.23,30.01,11,2,13,0.00
2013-8-25,82,74,64,68,65,62,93,75,57,30.31,30.22,10,2,15,0.00
2013-8-26,84,74,64,67,65,62,95,75,53,30.27,30.12,7,2,11,0.00
2013-8-27,85,74,64,72,67,63,99,80,57,30.14,30.00,4,1,9,0.00
2013-8-28,91,79,69,75,71,66,94,78,55,30.03,29.92,6,1,12,0.00
2013-8-29,93,81,73,79,74,71,93,80,58,29.94,29.85,6,2,12,0.00
2013-8-30,85,78,71,76,74,70,96,86,70,30.01,29.93,8,2,12,0.00
2013-8-31,88,79,72,78,75,71,99,88,69,29.97,29.89,8,1,8,0.00
2013-9-1,92,82,74,80,76,74,99,86,58,29.95,29.83,6,1,11,0.00
2013-9-2,92,83,77,80,77,74,96,82,60,29.92,29.81,8,2,12,0.00
2013-9-3,92,78,72,77,74,70,97,85,62,29.94,29.82,7,1,20,0.44
2013-9-4,89,80,71,79,75,71,98,88,68,30.07,29.93,8,1,11,0.01
2013-9-5,90,81,74,79,75,72,98,84,55,30.08,30.00,4,1,7,0.00
2013-9-6,89,78,69,73,70,66,97,78,50,30.09,30.01,9,1,12,0.00
2013-9-7,84,75,67,71,68,66,96,81,58,30.09,29.98,7,2,9,0.00
2013-9-8,89,76,65,75,70,64,99,84,56,30.00,29.89,5,1,10,0.00
2013-9-9,87,77,68,75,71,68,98,83,63,30.13,29.97,5,1,11,0.00
2013-9-10,88,78,70,74,71,68,97,81,53,30.22,30.13,11,1,13,0.00
2013-9-11,87,77,70,75,71,68,98,83,57,30.20,30.09,9,1,11,0.00
2013-9-12,89,77,68,74,71,67,99,82,51,30.09,29.86,5,1,10,0.00
2013-9-13,89,79,72,77,72,68,95,82,56,29.86,29.73,8,1,11,0.00
2013-9-14,83,75,68,70,66,63,88,75,61,30.07,29.80,10,3,16,0.00
2013-9-15,82,75,66,75,70,65,95,85,76,30.18,30.07,10,2,14,0.00
2013-9-16,88,78,72,77,73,71,98,85,65,30.12,30.01,6,1,9,0.00
2013-9-17,80,73,67,72,63,60,92,72,52,30.23,30.08,12,4,22,0.00
2013-9-18,78,67,58,62,58,54,92,75,54,30.24,30.14,10,3,12,0.00
2013-9-19,82,70,60,64,61,58,94,75,49,30.17,30.08,7,2,11,0.00
2013-9-20,83,72,62,68,65,61,98,80,57,30.09,29.95,5,0,9,0.00
2013-9-21,84,75,67,74,70,66,97,85,66,29.95,29.72,5,1,10,0.00
2013-9-22,78,72,67,73,69,65,97,88,76,29.86,29.66,8,2,13,0.16
2013-9-23,79,68,60,65,60,58,97,78,50,30.05,29.86,10,2,10,0.00
2013-9-24,77,66,57,61,58,54,94,76,47,30.08,29.94,9,1,12,0.00
2013-9-25,76,68,59,66,62,58,96,83,72,29.94,29.82,12,2,12,0.18
2013-9-26,78,69,63,65,62,57,96,80,51,29.96,29.82,8,2,12,0.41
2013-9-27,79,68,59,63,60,57,95,76,54,30.12,29.96,12,4,16,0.00
2013-9-28,77,68,61,63,60,56,89,78,61,30.16,30.08,10,3,14,0.00
2013-9-29,77,66,57,60,58,55,96,77,50,30.11,30.00,9,2,12,0.00
2013-9-30,77,65,55,63,59,54,97,82,53,30.07,29.98,6,1,9,0.00
2013-10-1,81,67,55,64,59,54,98,79,47,30.13,30.03,6,1,10,0.00
2013-10-2,85,69,58,66,62,57,98,80,51,30.14,30.06,8,1,8,0.00
2013-10-3,82,71,60,72,66,60,98,86,55,30.15,30.09,4,1,9,0.00
2013-10-4,84,73,66,73,69,65,99,87,60,30.14,30.06,6,1,11,0.00
2013-10-5,85,73,64,72,68,64,99,86,54,30.12,30.04,6,1,9,0.00
2013-10-6,83,74,67,76,71,67,99,90,76,30.06,29.94,9,1,10,0.02
2013-10-7,80,75,72,75,73,72,98,94,86,29.94,29.81,6,1,7,0.29
2013-10-8,72,63,57,72,62,56,98,95,92,30.09,29.87,15,5,20,0.59
2013-10-9,78,64,57,65,59,56,95,85,64,30.07,30.01,12,5,21,0.01
2013-10-10,69,63,59,61,58,56,92,84,73,30.02,29.95,11,4,18,0.00
2013-10-11,78,68,62,67,63,61,95,84,65,29.99,29.89,5,1,13,0.00
2013-10-12,81,70,64,67,64,62,96,82,60,30.06,29.93,8,1,12,0.00
2013-10-13,75,68,61,68,65,61,98,90,77,30.12,30.04,10,2,12,0.00
2013-10-14,77,70,67,68,66,63,93,87,73,30.13,30.05,11,5,19,0.00
2013-10-15,72,66,61,65,62,59,93,86,76,30.12,30.01,10,3,12,0.00
2013-10-16,73,67,61,66,64,60,97,90,75,30.04,29.95,6,1,7,0.00
2013-10-17,80,68,58,70,64,58,99,87,65,29.99,29.88,10,1,11,0.00
2013-10-18,78,70,64,72,68,64,99,94,83,29.99,29.90,5,1,7,0.02
2013-10-19,79,71,66,74,69,65,98,93,79,29.95,29.85,4,0,8,0.62
2013-10-20,69,63,56,65,57,53,95,81,62,30.09,29.90,10,2,15,0.03
2013-10-21,70,61,54,60,56,52,93,83,67,30.13,30.01,6,1,9,0.00
2013-10-22,68,62,59,63,60,57,98,91,74,30.02,29.85,3,0,4,0.14
2013-10-23,72,62,54,62,53,40,98,76,39,30.01,29.73,12,2,23,0.13
2013-10-24,63,51,42,46,40,36,95,69,43,30.19,30.02,6,1,10,0.00
2013-10-25,60,50,40,47,40,35,98,73,41,30.36,30.14,14,2,17,0.00
2013-10-26,64,48,36,47,40,34,95,76,45,30.35,30.14,6,1,9,0.00
2013-10-27,71,55,41,54,47,40,97,79,48,30.15,30.07,5,1,9,0.00
2013-10-28,75,60,51,60,56,50,98,86,58,30.27,30.14,3,0,5,0.00
2013-10-29,76,61,51,62,57,51,99,87,56,30.33,30.24,5,0,7,0.00
2013-10-30,76,62,52,64,58,52,99,87,53,30.32,30.19,5,0,7,0.00
2013-10-31,78,66,54,69,62,54,99,88,67,30.21,29.99,5,1,17,0.00
2013-11-1,80,74,70,72,70,67,96,85,69,29.99,29.75,9,2,14,0.13
2013-11-2,71,64,53,70,61,51,98,89,63,29.95,29.71,6,1,14,0.73
2013-11-3,65,54,46,52,45,42,94,72,43,30.32,29.94,12,2,15,0.00
2013-11-4,63,52,42,45,41,39,87,68,47,30.47,30.32,11,3,18,0.00
2013-11-5,65,54,42,60,50,39,95,88,78,30.45,30.34,9,3,12,0.01
2013-11-6,76,65,56,66,60,52,97,85,69,30.34,30.10,7,2,10,0.12
2013-11-7,73,66,58,67,64,50,98,91,72,30.09,29.91,9,1,14,0.36
2013-11-8,59,50,39,47,37,32,94,62,37,30.31,30.05,14,3,18,0.00
2013-11-9,65,51,38,51,44,34,93,77,51,30.37,30.22,6,1,6,0.00
2013-11-10,68,57,48,53,50,45,97,80,45,30.25,30.13,5,1,8,0.00
2013-11-11,64,52,44,48,41,35,97,69,43,30.32,30.18,12,2,14,0.00
2013-11-12,69,54,37,50,42,29,98,70,43,30.37,30.01,26,3,26,0.00
2013-11-13,47,38,28,32,26,22,90,65,38,30.52,30.36,17,4,22,0.00
2013-11-14,60,42,27,40,32,25,95,73,31,30.52,30.36,5,1,6,0.00
2013-11-15,63,54,38,60,51,37,95,89,75,30.35,30.18,7,1,9,0.00
2013-11-16,74,64,57,66,60,56,98,89,61,30.23,30.16,5,1,8,0.00
2013-11-17,75,64,53,70,63,53,98,95,83,30.20,29.99,5,1,7,0.04
2013-11-18,81,72,63,73,67,48,98,85,58,29.99,29.79,8,2,13,0.01
2013-11-19,62,55,47,48,35,32,66,50,35,30.25,29.92,10,3,18,0.00
2013-11-20,59,50,42,47,41,36,82,71,60,30.36,30.23,10,4,16,0.00
2013-11-21,71,58,49,62,54,45,96,84,71,30.40,30.33,10,2,11,0.00
2013-11-22,74,64,59,66,62,58,98,92,70,30.34,30.13,3,0,6,0.01
2013-11-23,66,62,55,65,60,43,98,93,64,30.13,30.02,6,1,13,0.15
2013-11-24,54,41,29,41,20,11,61,45,27,30.55,30.12,18,5,22,0.00
2013-11-25,48,37,27,34,20,10,80,52,30,30.59,30.30,12,2,13,0.00
2013-11-26,71,59,40,70,57,35,99,94,82,30.30,29.63,14,3,23,2.47
2013-11-27,68,54,36,68,52,30,98,92,76,30.21,29.47,11,4,22,0.09
2013-11-28,46,36,30,31,26,20,95,69,43,30.50,30.22,13,2,16,0.00
2013-11-29,56,42,29,35,32,28,96,71,39,30.56,30.48,9,2,12,0.00
2013-11-30,57,45,34,44,37,29,85,73,60,30.56,30.33,10,3,14,0.00
2013-12-1,60,52,46,52,47,42,96,85,75,30.32,30.02,6,1,8,0.00
2013-12-2,62,52,44,52,49,43,97,88,64,30.02,29.82,6,1,11,0.00
2013-12-3,64,53,42,56,49,41,98,88,62,30.02,29.89,4,0,7,0.06
2013-12-4,73,62,56,66,60,56,99,93,74,30.11,29.99,5,0,9,0.15
2013-12-5,77,66,54,67,62,54,99,89,68,30.17,30.08,5,1,8,0.00
2013-12-6,80,72,66,70,67,65,97,86,63,30.16,30.06,8,3,16,0.00
2013-12-7,74,60,45,69,57,44,96,92,83,30.38,30.08,10,3,16,0.06
2013-12-8,45,43,42,43,42,41,97,96,92,30.39,30.26,13,3,14,0.03
2013-12-9,70,53,42,65,51,41,98,95,83,30.27,30.06,6,1,7,0.00
2013-12-10,74,61,44,69,58,43,99,91,74,30.33,29.91,13,3,22,0.08
2013-12-11,54,42,33,42,32,22,95,72,32,30.48,30.30,6,1,9,0.00
2013-12-12,51,40,30,38,30,21,97,71,31,30.41,30.27,8,2,17,0.00
2013-12-13,54,40,27,40,31,21,95,74,30,30.43,30.28,3,0,7,0.00
2013-12-14,69,60,45,68,56,40,97,87,77,30.28,29.78,11,2,18,0.52
2013-12-15,67,56,43,65,52,42,96,87,70,30.12,29.75,9,2,20,0.04
2013-12-16,60,45,34,45,39,33,98,83,47,30.22,30.12,6,1,9,0.00
2013-12-17,65,51,38,45,40,36,97,68,37,30.21,30.05,7,1,12,0.01
2013-12-18,55,46,33,40,33,27,94,65,35,30.34,30.06,11,2,11,0.00
2013-12-19,62,45,30,45,38,29,98,80,41,30.38,30.27,4,0,8,0.00
2013-12-20,73,58,44,61,54,43,97,86,61,30.27,30.16,6,1,10,0.00
2013-12-21,76,64,52,68,62,52,99,92,76,30.19,30.10,5,1,9,0.00
2013-12-22,81,72,64,72,68,63,98,87,69,30.14,30.07,7,2,17,0.00
2013-12-23,78,70,60,71,68,59,99,92,79,30.12,30.02,11,2,13,0.23
2013-12-24,60,49,39,60,44,33,98,83,62,30.40,30.06,9,3,15,0.11
2013-12-25,48,38,29,32,27,21,77,65,49,30.50,30.34,11,3,11,0.00
2013-12-26,47,41,36,43,38,29,95,86,75,30.34,30.24,6,2,11,0.02
2013-12-27,56,44,36,39,35,31,94,74,43,30.43,30.32,8,1,11,0.00
2013-12-28,62,48,33,54,40,29,94,74,34,30.41,30.09,5,1,8,0.10
2013-12-29,72,64,50,68,61,49,99,91,71,30.07,29.76,11,3,19,1.13
2013-12-30,58,50,45,51,48,44,98,93,75,30.16,29.96,3,0,6,0.01
2013-12-31,55,49,40,48,44,38,96,83,56,30.39,30.13,8,1,11,0.00
2014-1-1,51,44,38,45,40,36,97,88,60,30.41,30.17,4,1,7,0.14
2014-1-2,57,51,46,57,50,45,99,97,86,30.15,29.64,8,1,15,0.72